Bookmark and Share
Track history (hours):
 

Eviapetrol II

Last reported at 2014-Apr-18 04:33 UTC. Time now 2014-Apr-18 08:03 UTC.
Position N 38°01' E 023°32'.

Length 78 m; draft 4.6 m.

Type: Tanker. MMSI: 240493000.

NotesDate/timePositionNaut miles runAvg speedWind from/ knotsBaromVisibWave heightAir tempDewpointWater temp
2014-Apr-18 04:33N 38°01' E 023°32'7 6.9
2014-Apr-18 03:33N 37°55' E 023°36'8 8.5
2014-Apr-18 02:33N 37°48' E 023°41'1110.3
2014-Apr-18 01:31N 37°38' E 023°47'6410.1
2014-Apr-17 19:09N 36°39' E 024°17'1710.3
2014-Apr-17 17:31N 36°24' E 024°26'2110.3
2014-Apr-17 15:31N 36°05' E 024°37'1010.6
2014-Apr-17 14:33N 35°56' E 024°43'5 0.2
2014-Apr-16 11:08N 35°52' E 024°46'6 9.6
2014-Apr-16 10:32N 35°57' E 024°43'10 9.9
2014-Apr-16 09:33N 36°05' E 024°37'11 9.9
2014-Apr-16 08:29N 36°15' E 024°31'910.0
2014-Apr-16 07:33N 36°23' E 024°26'10 9.7
2014-Apr-16 06:32N 36°32' E 024°20'9 9.2
2014-Apr-16 05:33N 36°40' E 024°15'9 8.5
2014-Apr-16 04:27N 36°49' E 024°10'8 8.5
2014-Apr-16 03:32N 36°56' E 024°07'10 9.2
2014-Apr-16 02:25N 37°05' E 024°01'3310.2
2014-Apr-15 23:12N 37°35' E 023°44'710.2
2014-Apr-15 22:33N 37°41' E 023°41'9 9.4
2014-Apr-15 21:33N 37°49' E 023°34'13 5.8
2014-Apr-15 19:22N 38°01' E 023°29'7 0.2
2014-Apr-14 15:34N 37°57' E 023°36'1010.3
2014-Apr-14 14:33N 37°47' E 023°42'  
2014-Apr-11 13:05N 37°39' E 023°50'5 9.7
2014-Apr-11 12:33N 37°39' E 023°44'9 9.1
2014-Apr-11 11:33N 37°47' E 023°38'9 9.3
2014-Apr-11 10:33N 37°56' E 023°35'2 0.1
2014-Apr-10 09:30N 37°57' E 023°33'4 4.4
2014-Apr-10 08:34N 37°55' E 023°37'4 3.8
2014-Apr-10 07:33N 37°51' E 023°39'1010.5
2014-Apr-10 06:33N 37°42' E 023°45'20 9.5
2014-Apr-10 04:23N 37°40' E 024°11'910.6
2014-Apr-10 03:33N 37°46' E 024°19'  

Dump ship's entire track history

sailing weather and tide predictions

Eviapetrol II — SY6858 — position and weather